Location: Chaves
(41.7330°N, 7.4670°W)
Time: 19:53:13
(UTC+00:00)

ISS - Pass Details

Date: 27 October 2019
Orbit: 412 x 421 km, 51.6° (Epoch: 23 November)

Event Time Altitude Azimuth Distance (km) Brightness Sun altitude
Exits shadow 05:28:24 36° 229° (SW) 684 -3.1 -16.8°
Maximum altitude 05:29:39 84° 144° (SE) 428 -3.8 -16.6°
Drops below altitude 10° 05:33:02 10° 56° (NE) 1,507 -0.2 -16.0°
Sets 05:35:15 0° 56° (NE) 2,423 1.0 -15.6°
